Retour au catalogue

ATLAS 5 CENTAUR DEB

ActifHEO
NORAD 52828·DEBRIS·🇺🇸 United States

Lancé Sep 17, 2014 depuis Cape Canaveral Space Force Station

Loading…

Prochains Passages (prochaines 24 heures)

TLE

FraisSource: Space-Track

Époque: Sep 6, 2026, 16:42 UTC

1 52828U 14055DL  26249.69614060 -.00000059  00000-0  00000-0 0  9990
2 52828  19.4925 162.8607 4665400 130.9954 279.8048  1.81208000 28540

Suivez ATLAS 5 CENTAUR DEB en temps réel avec AllMySat

Download on the App Store